Regional Weather Roundup
Issued by NWS New Orleans/Baton Rouge, LA

Home | Current Version | Previous Version | Text Only | Print | Product List | Glossary Off
Versions: 1 2 3 4 5 6 7 8 9 10 11 12 13 14 15 16 17 18 19 20 21 22 23 24 25 26 27 28 29 30 31 32 33 34 35 36 37 38 39 40 41 42 43 44 45 46 47 48 49 50

117
ASUS44 KLIX 220110
RWRLIX
NEW ORLEANS REGIONAL WEATHER ROUNDUP
NATIONAL WEATHER SERVICE NEW ORLEANS LA
800 PM CDT TUE OCT 21 2014

NOTE: "FAIR" INDICATES FEW OR NO CLOUDS BELOW 12,000 FEET WITH NO
      SIGNIFICANT WEATHER AND/OR OBSTRUCTIONS TO VISIBILITY.
      SKY/WX - SKY CONDITION AND SIGNIFICANT WEATHER.
      TMP - AIR TEMPERATURE.     DP    - DEWPOINT TEMPERATURE.
      RH  - RELATIVE HUMIDITY.   PRES  - PRESSURE.
      HI  - HEAT INDEX.          WCI   - WIND CHILL INDEX.

*  THESE STATIONS ARE NOT NWS OR FAA STATIONS AND ARE NOT UNDER
   NWS QUALITY CONTROL.

LAZ038-040-048-061>063-065>067-069-220200-
SOUTHEAST LOUISIANA

CITY           SKY/WX    TMP DP  RH WIND       PRES   REMARKS
N.O. AUDUBON     N/A     70  56  60 MISG        N/A
N.O. INTL ARPT CLEAR     71  55  56 CALM      30.00R
N.O. LAKEFRONT CLEAR     75  61  61 NE5       30.00R
N.O. DOWNTOWN*   N/A     75  52  43 CALM      30.00R
SLIDELL        CLEAR     64  60  87 CALM      30.00R
BATON ROUGE    CLEAR     68  58  70 CALM      30.01R
BOOTHVILLE     CLEAR     70  60  70 SE3       30.00R
BELLE CHASSE   CLEAR     62  57  83 CALM      29.99R
BOGALUSA*        N/A     63  56  80 CALM      30.02R
NEW ROADS*       N/A     66  59  79 N5        30.01R
GONZALES*        N/A     64  64 100 CALM      30.00R
HAMMOND*       CLEAR     64  57  77 NE3       30.02R
HOUMA*         CLEAR     64  58  82 CALM      29.99R
PORT FOURCHON* CLOUDY    72  57  60 NE6       30.03R

$$

MSZ070-080>082-220200-
SOUTHERN MISSISSIPPI

CITY           SKY/WX    TMP DP  RH WIND       PRES   REMARKS
MCCOMB         CLEAR     68  56  65 N3        30.02R
GULFPORT       CLEAR     65  60  84 CALM      29.99R
BILOXI         CLEAR     69  60  73 CALM      29.99R
PASCAGOULA     CLEAR     59  57  93 CALM      30.00R
STENNIS ARPT*  CLEAR     63  55  77 CALM      30.01R

$$

COASTAL OBSERVATIONS
LAKE AND NEARSHORE STATIONS

STATION/POSITION TIME  TEMP    WIND        PRES    WAVE
                       AIR SEA DIR/SP/G            HT/PER
                 (UTC) (F)     (DEG/KT/KT) (MB)    (FT/S)
PASCAGOULA       0100   69     260/  5/  6 1015.0
WAVELAND YACHT   0100   68     310/  1/  2 1015.1
GRAND ISLE       0100   72 76   60/  5/  6 1016.1
SOUTHWEST PASS   0100   73 84              1015.7
NEW CANAL        0100   75 73   20/  4/  5 1016.0
SHELL BEACH      0100   71 70  160/  3/  4 1015.5

OFFSHORE STATIONS

STATION/POSITION TIME  TEMP    WIND        PRES    WAVE
                       AIR SEA DIR/SP/G            HT/PER
                 (UTC) (F)     (DEG/KT/KT) (MB)    (FT/S)
64 S DAUPHIN ISL 0033   74 79   50/  8/ 10 1015.8    2/ 4

$$




USA.gov is the U.S. government's official web portal to all federal, state and local government web resources and services.